STARLINK-37754, 69201

Orbit data source: Space-Track

STARLINK-37754, 69201 is a payload satellite owned by SpaceX/Seattle (US) in LEO that was launched on Mon, 25 May 2026 UTC via an FALCON 9 launch vehicle from the Air Force Eastern Test Range (AFETR). Payload-class satellites include a variety of spacecraft equipped with specific instruments for various scientific and technological missions. These include communications satellites like Starlink; space stations such as the ISS; scientific satellites like the Hubble; Earth observation satellites from companies like Planet Labs, Umbra, and HawkEye 360; GPS; miniature CubeSats for education and research; and military/defense satellites.

Loading next visibility...
Identifier
69201, 2026-114V
Orbit
LEO
Country
Flag of USUS
Related business
Manufacturer
SpaceX/Seattle
Mission
Operational spacecraft
Bus & Motor
STARLINK V2MO, Unknown motor
Mass
575 kg wet, ~530 kg dry
Launch date (UTC)
2026-05-25 (4 weeks ago)
Launch vehicle
FALCON 9
Launch site
Air Force Eastern Test Range (AFETR)
Object type
Payload
Rocket body
Debris
Shape & HBR
Unknown
Radar Cross Section
Large (>1 m²)

Expand to show TLE details & history
Last TLE update: 10 hours ago

TLE from 10 hours ago
0 STARLINK-37754
1 69201U 26114V   26171.41668980 -.02524499  00000-0 -30032-1 0  9997
2 69201  53.1598 186.0910 0001150  88.0217 231.8958 15.64105545  5332
Epoch: 2026-06-20T10:00Z
TLE epoch observation values (Epoch: 2026-06-20T10:00:01.998Z)
Latitude
-31.23598°
Longitude
100.59004°
Altitude
385.915 km
Speed
7.678 km/s
True Right ascension
10h 36m 55s
True Declination
-31° 04' 31"
Sunlit
Object was in daylight at epoch
Visualization orbit readout
Latitude
Unknown
Longitude
Unknown
Altitude
Unknown
Speed
Unknown
Apparent Right ascension
Unknown
Apparent Declination
Unknown
Sunlit
N/A
Visualization observer readout
Local Sidereal Time
07:12:02
Azimuth
Unknown
Elevation
Unknown
Doppler factor
Unknown
Orbital elements
Apogee altitude
376.849 km
Perigee altitude
375.296 km
Semi-major axis
6,754.21 km
Eccentricity
0.00012
Inclination
53.1598°
RAAN
186.091°
Arg. of periapsis
88.0217°
True anomaly
231.88543°
Mean anomaly
231.8958°
Eccentric anomaly
231.89062°
Mean motion
3.91004 °/min
Orbital period
92.07 mins
BSTAR
-0.030032
Loading maneuver chart data...
Computing Atmospheric mass density...
Loading historical data...
Loading historical data...
Loading historical data...
Loading historical data...
Loading historical data...
Loading historical data...
Loading historical data...

Documentation

Showing up to 5 results
|